Location: Elstree
(51.6403°N, 0.2969°W)
Time: 14:47:54
(UTC+00:00)

Cosmos 2333 Rocket - Pass Details

Date: 03 March 2021
Orbit: 837 x 864 km, 70.8° (Epoch: 13 April)

Event Time Altitude Azimuth Distance (km) Brightness Sun altitude
Rises 18:48:33 0° 162° (SSE) 3,391 5.1 -10.6°
Reaches altitude 10° 18:51:34 10° 146° (SE) 2,466 4.3 -11.1°
Maximum altitude 18:55:36 20° 101° (E) 1,854 3.4 -11.7°
Drops below altitude 10° 18:59:39 10° 55° (NE) 2,492 4.2 -12.3°
Sets 19:02:42 0° 40° (NE) 3,438 5.0 -12.8°
